Regional Weather Roundup
Issued by NWS Sioux Falls, SD

Home | Current Version | Previous Version | Graphics & Text | Print | Product List | Glossary Off
Versions: 1 2 3 4 5 6 7 8 9 10 11 12 13 14 15 16 17 18 19 20 21 22 23 24 25 26 27 28 29 30 31 32 33 34 35 36 37 38 39 40 41 42 43 44 45 46 47 48 49 50

000
ASUS43 KFSD 310010
RWRFSD

WEATHER ROUNDUP FOR SE SOUTH DAKOTA/SW MINNESOTA/NW IOWA
NATIONAL WEATHER SERVICE SIOUX FALLS SD
700 PM CDT THU OCT 30 2014

NOTE: "FAIR" INDICATES FEW OR NO CLOUDS BELOW 12,000 FEET WITH NO
SIGNIFICANT WEATHER AND OR OBSTRUCTIONS TO VISIBILITY.


SDZ038>040-050-052>070-310100-
SOUTHEAST SOUTH DAKOTA

CITY           SKY/WX    TMP DP  RH WIND       PRES   REMARKS
CHAMBERLAIN    MOCLDY    41  31  68 N10       30.41R
6HR MIN TEMP:  41; 6HR MAX TEMP:  48;

HURON          CLOUDY    38  29  70 N17G25    30.42R
6HR MIN TEMP:  38; 6HR MAX TEMP:  45;

MADISON        CLOUDY    37  32  81 N22G28    30.35R
MITCHELL       CLOUDY    42  32  67 N15G24    30.40R
6HR MIN TEMP:  42; 6HR MAX TEMP:  46;

SIOUX FALLS    CLOUDY    40  32  73 N26G35    30.33R
6HR MIN TEMP:  40; 6HR MAX TEMP:  54; 6HR PCP: TRACE;

WINNER         FAIR      41  30  65 N9        30.40R
YANKTON        CLOUDY    45  36  70 NW20G26   30.34R
$$

MNZ071-072-080-081-089-090-097-098-310100-
SOUTHWEST MINNESOTA

CITY           SKY/WX    TMP DP  RH WIND       PRES   REMARKS
FAIRMONT       CLOUDY    46  30  53 N25G31    30.21R
JACKSON        CLOUDY    45  34  65 NW24G31   30.24R
LUVERNE        CLOUDY    41  32  70 N18G28    30.31R
MARSHALL       CLOUDY    37  28  70 N20G31    30.32R
6HR MIN TEMP:  37; 6HR MAX TEMP:  50;

MONTEVIDEO     CLOUDY    36  30  80 N22G30    30.35R
PIPESTONE      CLOUDY    37  30  75 N16G25    30.30R
REDWOOD FALLS  CLOUDY    41  30  65 N17G31    30.29R
TRACY          CLOUDY    38  31  75 N25G33    30.31R
WINDOM         CLOUDY    41  34  75 NW28G36   30.26R
WORTHINGTON    CLOUDY    39  34  81 N28       30.28R
$$

IAZ001>003-012>014-020>022-031-032-NEZ013-014-SDZ071-310100-
NORTHWEST IOWA

CITY           SKY/WX    TMP DP  RH WIND       PRES   REMARKS
CHEROKEE       CLOUDY    47  40  78 N17G31    30.23R
DENISON        CLOUDY    54  39  58 N15       30.15R
ESTHERVILLE    CLOUDY    44  37  76 N24G36    30.22R
LE MARS        CLOUDY    46  39  76 N20G28    30.27R
ORANGE CITY    CLOUDY    45  37  76 N17G26    30.26R
SHELDON        CLOUDY    43  37  81 N23G31    30.26R
SIOUX CITY     CLOUDY    50  41  71 N21G30    30.25R
6HR MIN TEMP:  50; 6HR MAX TEMP:  60;

SPENCER        CLOUDY    45  38  76 N26G36    30.23R
6HR MIN TEMP:  45; 6HR MAX TEMP:  59;

STORM LAKE     CLOUDY    46  39  76 N21G29    30.21R
$$

ABBREVIATIONS USED IN REMARKS
   TC - TEMPERATURE IN CELSIUS
  WCI - WIND CHILL INDEX
   HX - HEAT INDEX
  VSB - VISIBILITY




USA.gov is the U.S. government's official web portal to all federal, state and local government web resources and services.